Lid_Strength_Index
-0 -0 0 0 0 1 1 1 1 2 2 2 2 2 2 2 3 4 7 4 3 -0 -0 2 3 3 3 5 6 7 8 11 10 10 9 7 8 6 4 6 6 5 5 4 2
-0 -0 -0 -0 1 1 1 1 2 2 2 2 2 2 2 2 4 7 2 0 -1 -1 3 4 5 4 5 5 6 7 9 10 8 8 8 8 7 7 7 8 7 6 4 3 3
-0 -0 0 0 1 1 1 2 2 2 2 2 2 2 2 3 8 7 -1 -1 -1 -1 2 3 4 5 6 6 7 8 9 8 8 8 6 8 7 6 7 8 7 7 6 4 4
1 0 0 1 1 1 2 2 2 2 2 2 2 2 2 4 12 6 -1 -1 -2 1 3 4 5 6 6 7 7 9 8 9 7 6 7 8 6 7 7 6 5 4 4 4 4
2 2 1 1 1 2 2 3 3 3 3 3 2 2 4 9 9 4 -1 -1 1 2 4 4 6 6 7 7 8 10 8 6 6 6 6 6 7 7 7 5 4 4 4 4 4
3 3 2 2 2 2 2 2 3 3 3 3 3 2 6 11 6 4 3 3 3 4 4 4 5 5 6 7 7 6 7 7 6 7 6 7 7 6 7 5 5 5 5 4 4
3 3 3 2 2 2 2 3 3 3 3 3 3 4 7 9 5 4 3 3 3 3 4 4 4 5 5 7 5 6 8 7 7 7 7 6 8 8 6 5 6 6 5 5 4
4 3 4 3 3 3 3 3 3 3 3 3 3 5 10 5 5 4 3 3 2 3 4 4 4 5 5 5 7 8 8 10 7 7 7 7 11 8 6 6 7 6 5 5 4
4 4 4 4 4 4 4 4 4 3 3 3 6 7 10 4 7 4 2 4 3 3 3 4 4 5 6 8 9 9 11 11 9 7 7 8 9 8 6 7 7 7 6 5 5
4 4 4 4 3 4 4 4 4 4 4 4 5 9 7 8 6 3 2 3 4 4 4 5 6 7 7 8 12 11 11 10 10 8 8 9 9 9 7 7 7 7 6 6 5
4 4 4 4 3 4 5 6 10 8 7 8 9 9 9 6 4 4 4 4 4 4 7 6 8 10 8 8 9 9 10 10 9 7 8 9 9 8 8 7 8 7 7 6 5
4 4 4 4 3 4 5 8 9 7 10 7 7 8 6 5 7 5 4 6 6 8 7 8 10 7 8 8 8 9 10 10 8 8 8 9 9 8 8 8 7 7 7 6 5
3 4 4 4 4 5 6 7 6 5 10 9 8 8 7 6 7 6 5 6 8 8 8 10 8 7 8 9 10 9 10 10 10 9 9 9 10 9 7 7 7 6 6 5 5
2 4 4 4 5 5 7 5 5 5 13 13 11 8 6 6 8 4 5 6 8 8 9 9 7 8 9 9 9 11 8 9 10 11 13 10 14 10 8 8 8 7 6 6 5
2 3 4 4 6 7 6 4 5 7 20 12 9 5 6 8 7 6 5 6 8 8 8 9 9 9 10 9 8 10 8 9 9 11 11 12 12 10 9 9 8 7 6 6 5
2 2 3 4 4 4 4 4 5 13 20 13 9 10 9 8 8 8 6 5 6 7 7 8 7 7 8 8 8 8 9 10 10 11 15 12 12 11 10 9 8 6 6 5 5
2 2 2 2 5 3 4 6 13 17 12 13 11 10 10 11 10 9 9 9 9 12 12 9 9 7 7 9 8 8 10 14 16 16 16 11 13 11 8 8 7 7 6 5 4
2 2 2 2 2 3 3 9 17 13 13 10 11 10 12 11 11 10 10 10 10 9 11 12 13 9 7 8 10 10 10 15 18 17 15 11 14 10 7 6 6 6 6 5 5
1 3 4 3 1 2 7 14 15 13 11 12 12 12 12 11 10 10 10 10 9 9 11 12 12 8 7 7 7 10 12 10 14 14 16 13 11 8 7 7 7 6 6 6 5
4 5 5 2 0 3 9 13 11 10 9 9 13 12 13 12 12 11 11 10 10 8 7 9 12 9 8 7 7 9 8 13 13 18 18 14 13 11 9 8 7 7 6 6 5
4 7 4 1 1 6 13 12 10 8 8 10 11 11 13 12 11 11 11 9 8 9 8 9 9 10 9 10 11 10 11 11 11 13 16 17 14 8 8 7 7 6 6 5 5
5 11 4 1 8 8 11 10 9 9 8 9 9 10 11 11 11 11 11 9 8 8 9 8 10 13 11 8 8 8 10 10 15 15 14 15 14 7 7 8 7 6 5 5 5
7 7 3 3 12 11 10 9 9 9 9 10 10 9 8 10 12 10 9 7 8 8 8 8 11 14 12 10 9 10 9 10 10 12 14 16 14 8 8 7 7 7 6 5 5
7 10 7 5 7 10 11 10 10 8 9 9 9 8 9 10 9 10 9 7 7 7 7 7 10 12 14 11 10 12 11 10 11 14 14 13 11 9 8 8 7 6 6 6 5
6 9 7 11 10 10 10 10 11 11 9 9 10 9 10 12 10 10 8 8 7 7 7 7 11 11 10 11 10 10 11 11 11 11 13 11 12 9 8 8 7 8 8 7 6
8 8 6 8 8 10 10 11 11 10 9 11 11 9 9 11 10 11 9 9 9 8 8 8 11 11 11 10 11 11 10 10 10 10 11 11 11 8 8 8 8 8 7 6 6
5 4 6 8 9 10 11 10 10 9 8 8 9 9 10 9 7 7 6 6 7 8 10 10 11 13 14 12 12 15 11 11 10 9 9 12 9 8 9 9 8 7 6 6 6